<?xml version="1.0"?>
<gpx xmlns="http://www.topografix.com/GPX/1/1" xmlns:xsi="http://www.w3.org/2001/XMLSchema-instance" version="1.1" creator="GPX RubyGem 1.0.0 -- http://dougfales.github.io/gpx/" xsi:schemaLocation="http://www.topografix.com/GPX/1/1 http://www.topografix.com/GPX/1/1/gpx.xsd">
  <metadata>
    <name/>
    <time>2026-05-07T20:57:05+00:00</time>
    <bound minlat="90.0" minlon="180.0" maxlat="-90.0" maxlon="-180.0"/>
  </metadata>
  <trk>
    <name/>
    <trkseg>
      <trkpt lat="45.52447" lon="7.202012">
        <time>1970-01-01T00:00:00+00:00</time>
        <ele>1953.0</ele>
      </trkpt>
      <trkpt lat="45.524513" lon="7.20227">
        <time>1970-01-01T00:00:00+00:00</time>
        <ele>1952.0</ele>
      </trkpt>
      <trkpt lat="45.524457" lon="7.202533">
        <time>1970-01-01T00:00:00+00:00</time>
        <ele>1953.0</ele>
      </trkpt>
      <trkpt lat="45.524185" lon="7.202666">
        <time>1970-01-01T00:00:00+00:00</time>
        <ele>1955.0</ele>
      </trkpt>
      <trkpt lat="45.523519" lon="7.202816">
        <time>1970-01-01T00:00:00+00:00</time>
        <ele>1957.0</ele>
      </trkpt>
      <trkpt lat="45.523325" lon="7.20277">
        <time>1970-01-01T00:00:00+00:00</time>
        <ele>1957.0</ele>
      </trkpt>
      <trkpt lat="45.522421" lon="7.202825">
        <time>1970-01-01T00:00:00+00:00</time>
        <ele>1961.0</ele>
      </trkpt>
      <trkpt lat="45.522136" lon="7.203035">
        <time>1970-01-01T00:00:00+00:00</time>
        <ele>1964.0</ele>
      </trkpt>
      <trkpt lat="45.521968" lon="7.202907">
        <time>1970-01-01T00:00:00+00:00</time>
        <ele>1964.0</ele>
      </trkpt>
      <trkpt lat="45.521769" lon="7.20292">
        <time>1970-01-01T00:00:00+00:00</time>
        <ele>1965.0</ele>
      </trkpt>
      <trkpt lat="45.521314" lon="7.203121">
        <time>1970-01-01T00:00:00+00:00</time>
        <ele>1967.0</ele>
      </trkpt>
      <trkpt lat="45.521143" lon="7.203289">
        <time>1970-01-01T00:00:00+00:00</time>
        <ele>1968.0</ele>
      </trkpt>
      <trkpt lat="45.520148" lon="7.203613">
        <time>1970-01-01T00:00:00+00:00</time>
        <ele>1969.0</ele>
      </trkpt>
      <trkpt lat="45.519046" lon="7.204184">
        <time>1970-01-01T00:00:00+00:00</time>
        <ele>1972.0</ele>
      </trkpt>
      <trkpt lat="45.518469" lon="7.204325">
        <time>1970-01-01T00:00:00+00:00</time>
        <ele>1976.0</ele>
      </trkpt>
      <trkpt lat="45.517778" lon="7.204372">
        <time>1970-01-01T00:00:00+00:00</time>
        <ele>1979.0</ele>
      </trkpt>
      <trkpt lat="45.517126" lon="7.204632">
        <time>1970-01-01T00:00:00+00:00</time>
        <ele>1981.0</ele>
      </trkpt>
      <trkpt lat="45.516432" lon="7.20479">
        <time>1970-01-01T00:00:00+00:00</time>
        <ele>1985.0</ele>
      </trkpt>
      <trkpt lat="45.516273" lon="7.204965">
        <time>1970-01-01T00:00:00+00:00</time>
        <ele>1986.0</ele>
      </trkpt>
      <trkpt lat="45.516068" lon="7.20502">
        <time>1970-01-01T00:00:00+00:00</time>
        <ele>1987.0</ele>
      </trkpt>
      <trkpt lat="45.515784" lon="7.205543">
        <time>1970-01-01T00:00:00+00:00</time>
        <ele>1990.0</ele>
      </trkpt>
      <trkpt lat="45.515764" lon="7.205674">
        <time>1970-01-01T00:00:00+00:00</time>
        <ele>1990.0</ele>
      </trkpt>
      <trkpt lat="45.515622" lon="7.205863">
        <time>1970-01-01T00:00:00+00:00</time>
        <ele>1993.0</ele>
      </trkpt>
      <trkpt lat="45.515338" lon="7.205831">
        <time>1970-01-01T00:00:00+00:00</time>
        <ele>1993.0</ele>
      </trkpt>
      <trkpt lat="45.515113" lon="7.206048">
        <time>1970-01-01T00:00:00+00:00</time>
        <ele>1995.0</ele>
      </trkpt>
      <trkpt lat="45.515118" lon="7.206312">
        <time>1970-01-01T00:00:00+00:00</time>
        <ele>1999.0</ele>
      </trkpt>
      <trkpt lat="45.514526" lon="7.207252">
        <time>1970-01-01T00:00:00+00:00</time>
        <ele>2015.0</ele>
      </trkpt>
      <trkpt lat="45.514345" lon="7.207299">
        <time>1970-01-01T00:00:00+00:00</time>
        <ele>2018.0</ele>
      </trkpt>
      <trkpt lat="45.514074" lon="7.207505">
        <time>1970-01-01T00:00:00+00:00</time>
        <ele>2025.0</ele>
      </trkpt>
      <trkpt lat="45.514111" lon="7.207763">
        <time>1970-01-01T00:00:00+00:00</time>
        <ele>2033.0</ele>
      </trkpt>
      <trkpt lat="45.514569" lon="7.208026">
        <time>1970-01-01T00:00:00+00:00</time>
        <ele>2047.0</ele>
      </trkpt>
      <trkpt lat="45.51466" lon="7.207978">
        <time>1970-01-01T00:00:00+00:00</time>
        <ele>2043.0</ele>
      </trkpt>
      <trkpt lat="45.51494" lon="7.208055">
        <time>1970-01-01T00:00:00+00:00</time>
        <ele>2048.0</ele>
      </trkpt>
      <trkpt lat="45.514866" lon="7.208321">
        <time>1970-01-01T00:00:00+00:00</time>
        <ele>2064.0</ele>
      </trkpt>
      <trkpt lat="45.514042" lon="7.208672">
        <time>1970-01-01T00:00:00+00:00</time>
        <ele>2086.0</ele>
      </trkpt>
      <trkpt lat="45.514625" lon="7.208791">
        <time>1970-01-01T00:00:00+00:00</time>
        <ele>2087.0</ele>
      </trkpt>
      <trkpt lat="45.514561" lon="7.208885">
        <time>1970-01-01T00:00:00+00:00</time>
        <ele>2094.0</ele>
      </trkpt>
      <trkpt lat="45.514605" lon="7.209009">
        <time>1970-01-01T00:00:00+00:00</time>
        <ele>2099.0</ele>
      </trkpt>
      <trkpt lat="45.514697" lon="7.209031">
        <time>1970-01-01T00:00:00+00:00</time>
        <ele>2098.0</ele>
      </trkpt>
      <trkpt lat="45.514639" lon="7.209145">
        <time>1970-01-01T00:00:00+00:00</time>
        <ele>2107.0</ele>
      </trkpt>
      <trkpt lat="45.51466" lon="7.209274">
        <time>1970-01-01T00:00:00+00:00</time>
        <ele>2114.0</ele>
      </trkpt>
      <trkpt lat="45.514746" lon="7.209312">
        <time>1970-01-01T00:00:00+00:00</time>
        <ele>2115.0</ele>
      </trkpt>
      <trkpt lat="45.514727" lon="7.209454">
        <time>1970-01-01T00:00:00+00:00</time>
        <ele>2123.0</ele>
      </trkpt>
      <trkpt lat="45.51454" lon="7.209473">
        <time>1970-01-01T00:00:00+00:00</time>
        <ele>2130.0</ele>
      </trkpt>
      <trkpt lat="45.514617" lon="7.209556">
        <time>1970-01-01T00:00:00+00:00</time>
        <ele>2132.0</ele>
      </trkpt>
      <trkpt lat="45.514544" lon="7.20964">
        <time>1970-01-01T00:00:00+00:00</time>
        <ele>2141.0</ele>
      </trkpt>
      <trkpt lat="45.514597" lon="7.209756">
        <time>1970-01-01T00:00:00+00:00</time>
        <ele>2148.0</ele>
      </trkpt>
      <trkpt lat="45.515075" lon="7.20987">
        <time>1970-01-01T00:00:00+00:00</time>
        <ele>2143.0</ele>
      </trkpt>
      <trkpt lat="45.515037" lon="7.209992">
        <time>1970-01-01T00:00:00+00:00</time>
        <ele>2151.0</ele>
      </trkpt>
      <trkpt lat="45.515082" lon="7.210103">
        <time>1970-01-01T00:00:00+00:00</time>
        <ele>2154.0</ele>
      </trkpt>
      <trkpt lat="45.514895" lon="7.210188">
        <time>1970-01-01T00:00:00+00:00</time>
        <ele>2165.0</ele>
      </trkpt>
      <trkpt lat="45.515107" lon="7.210485">
        <time>1970-01-01T00:00:00+00:00</time>
        <ele>2167.0</ele>
      </trkpt>
      <trkpt lat="45.5153" lon="7.210576">
        <time>1970-01-01T00:00:00+00:00</time>
        <ele>2164.0</ele>
      </trkpt>
      <trkpt lat="45.515272" lon="7.2107">
        <time>1970-01-01T00:00:00+00:00</time>
        <ele>2171.0</ele>
      </trkpt>
      <trkpt lat="45.515173" lon="7.210747">
        <time>1970-01-01T00:00:00+00:00</time>
        <ele>2178.0</ele>
      </trkpt>
      <trkpt lat="45.515304" lon="7.21092">
        <time>1970-01-01T00:00:00+00:00</time>
        <ele>2183.0</ele>
      </trkpt>
      <trkpt lat="45.515029" lon="7.210859">
        <time>1970-01-01T00:00:00+00:00</time>
        <ele>2189.0</ele>
      </trkpt>
      <trkpt lat="45.515099" lon="7.210961">
        <time>1970-01-01T00:00:00+00:00</time>
        <ele>2191.0</ele>
      </trkpt>
      <trkpt lat="45.514907" lon="7.211024">
        <time>1970-01-01T00:00:00+00:00</time>
        <ele>2199.0</ele>
      </trkpt>
      <trkpt lat="45.514672" lon="7.210808">
        <time>1970-01-01T00:00:00+00:00</time>
        <ele>2199.0</ele>
      </trkpt>
      <trkpt lat="45.514749" lon="7.211045">
        <time>1970-01-01T00:00:00+00:00</time>
        <ele>2205.0</ele>
      </trkpt>
      <trkpt lat="45.514628" lon="7.21108">
        <time>1970-01-01T00:00:00+00:00</time>
        <ele>2210.0</ele>
      </trkpt>
      <trkpt lat="45.514448" lon="7.210945">
        <time>1970-01-01T00:00:00+00:00</time>
        <ele>2212.0</ele>
      </trkpt>
      <trkpt lat="45.514159" lon="7.210918">
        <time>1970-01-01T00:00:00+00:00</time>
        <ele>2216.0</ele>
      </trkpt>
      <trkpt lat="45.514078" lon="7.210975">
        <time>1970-01-01T00:00:00+00:00</time>
        <ele>2217.0</ele>
      </trkpt>
      <trkpt lat="45.51432" lon="7.211173">
        <time>1970-01-01T00:00:00+00:00</time>
        <ele>2223.0</ele>
      </trkpt>
      <trkpt lat="45.51457" lon="7.211581">
        <time>1970-01-01T00:00:00+00:00</time>
        <ele>2243.0</ele>
      </trkpt>
      <trkpt lat="45.51448" lon="7.211583">
        <time>1970-01-01T00:00:00+00:00</time>
        <ele>2246.0</ele>
      </trkpt>
      <trkpt lat="45.514222" lon="7.211389">
        <time>1970-01-01T00:00:00+00:00</time>
        <ele>2238.0</ele>
      </trkpt>
      <trkpt lat="45.513637" lon="7.21135">
        <time>1970-01-01T00:00:00+00:00</time>
        <ele>2226.0</ele>
      </trkpt>
      <trkpt lat="45.513745" lon="7.211584">
        <time>1970-01-01T00:00:00+00:00</time>
        <ele>2247.0</ele>
      </trkpt>
      <trkpt lat="45.514092" lon="7.211775">
        <time>1970-01-01T00:00:00+00:00</time>
        <ele>2263.0</ele>
      </trkpt>
      <trkpt lat="45.514144" lon="7.211905">
        <time>1970-01-01T00:00:00+00:00</time>
        <ele>2268.0</ele>
      </trkpt>
      <trkpt lat="45.514059" lon="7.211958">
        <time>1970-01-01T00:00:00+00:00</time>
        <ele>2271.0</ele>
      </trkpt>
      <trkpt lat="45.513702" lon="7.21186">
        <time>1970-01-01T00:00:00+00:00</time>
        <ele>2261.0</ele>
      </trkpt>
      <trkpt lat="45.51372" lon="7.211993">
        <time>1970-01-01T00:00:00+00:00</time>
        <ele>2267.0</ele>
      </trkpt>
      <trkpt lat="45.513884" lon="7.212106">
        <time>1970-01-01T00:00:00+00:00</time>
        <ele>2276.0</ele>
      </trkpt>
      <trkpt lat="45.51408" lon="7.2124">
        <time>1970-01-01T00:00:00+00:00</time>
        <ele>2289.0</ele>
      </trkpt>
      <trkpt lat="45.513902" lon="7.212336">
        <time>1970-01-01T00:00:00+00:00</time>
        <ele>2285.0</ele>
      </trkpt>
      <trkpt lat="45.513908" lon="7.212466">
        <time>1970-01-01T00:00:00+00:00</time>
        <ele>2290.0</ele>
      </trkpt>
      <trkpt lat="45.51436" lon="7.212707">
        <time>1970-01-01T00:00:00+00:00</time>
        <ele>2300.0</ele>
      </trkpt>
      <trkpt lat="45.513995" lon="7.212779">
        <time>1970-01-01T00:00:00+00:00</time>
        <ele>2304.0</ele>
      </trkpt>
      <trkpt lat="45.514005" lon="7.212917">
        <time>1970-01-01T00:00:00+00:00</time>
        <ele>2311.0</ele>
      </trkpt>
      <trkpt lat="45.51418" lon="7.212962">
        <time>1970-01-01T00:00:00+00:00</time>
        <ele>2315.0</ele>
      </trkpt>
      <trkpt lat="45.514338" lon="7.213112">
        <time>1970-01-01T00:00:00+00:00</time>
        <ele>2321.0</ele>
      </trkpt>
      <trkpt lat="45.514066" lon="7.21318">
        <time>1970-01-01T00:00:00+00:00</time>
        <ele>2325.0</ele>
      </trkpt>
      <trkpt lat="45.514348" lon="7.213557">
        <time>1970-01-01T00:00:00+00:00</time>
        <ele>2336.0</ele>
      </trkpt>
      <trkpt lat="45.514062" lon="7.213465">
        <time>1970-01-01T00:00:00+00:00</time>
        <ele>2335.0</ele>
      </trkpt>
      <trkpt lat="45.513985" lon="7.213547">
        <time>1970-01-01T00:00:00+00:00</time>
        <ele>2335.0</ele>
      </trkpt>
      <trkpt lat="45.514011" lon="7.213675">
        <time>1970-01-01T00:00:00+00:00</time>
        <ele>2339.0</ele>
      </trkpt>
      <trkpt lat="45.514141" lon="7.213854">
        <time>1970-01-01T00:00:00+00:00</time>
        <ele>2345.0</ele>
      </trkpt>
      <trkpt lat="45.514367" lon="7.214741">
        <time>1970-01-01T00:00:00+00:00</time>
        <ele>2360.0</ele>
      </trkpt>
      <trkpt lat="45.514197" lon="7.214687">
        <time>1970-01-01T00:00:00+00:00</time>
        <ele>2361.0</ele>
      </trkpt>
      <trkpt lat="45.514148" lon="7.214802">
        <time>1970-01-01T00:00:00+00:00</time>
        <ele>2364.0</ele>
      </trkpt>
      <trkpt lat="45.514054" lon="7.214788">
        <time>1970-01-01T00:00:00+00:00</time>
        <ele>2364.0</ele>
      </trkpt>
      <trkpt lat="45.514058" lon="7.214925">
        <time>1970-01-01T00:00:00+00:00</time>
        <ele>2368.0</ele>
      </trkpt>
      <trkpt lat="45.514237" lon="7.21539">
        <time>1970-01-01T00:00:00+00:00</time>
        <ele>2380.0</ele>
      </trkpt>
      <trkpt lat="45.513951" lon="7.215899">
        <time>1970-01-01T00:00:00+00:00</time>
        <ele>2389.0</ele>
      </trkpt>
      <trkpt lat="45.513515" lon="7.216252">
        <time>1970-01-01T00:00:00+00:00</time>
        <ele>2394.0</ele>
      </trkpt>
      <trkpt lat="45.513464" lon="7.216359">
        <time>1970-01-01T00:00:00+00:00</time>
        <ele>2395.0</ele>
      </trkpt>
      <trkpt lat="45.513437" lon="7.216627">
        <time>1970-01-01T00:00:00+00:00</time>
        <ele>2402.0</ele>
      </trkpt>
      <trkpt lat="45.513519" lon="7.216693">
        <time>1970-01-01T00:00:00+00:00</time>
        <ele>2408.0</ele>
      </trkpt>
      <trkpt lat="45.513884" lon="7.216594">
        <time>1970-01-01T00:00:00+00:00</time>
        <ele>2417.0</ele>
      </trkpt>
      <trkpt lat="45.513715" lon="7.216906">
        <time>1970-01-01T00:00:00+00:00</time>
        <ele>2422.0</ele>
      </trkpt>
      <trkpt lat="45.513488" lon="7.217626">
        <time>1970-01-01T00:00:00+00:00</time>
        <ele>2440.0</ele>
      </trkpt>
      <trkpt lat="45.513411" lon="7.217695">
        <time>1970-01-01T00:00:00+00:00</time>
        <ele>2438.0</ele>
      </trkpt>
      <trkpt lat="45.513295" lon="7.218041">
        <time>1970-01-01T00:00:00+00:00</time>
        <ele>2444.0</ele>
      </trkpt>
      <trkpt lat="45.5133" lon="7.218174">
        <time>1970-01-01T00:00:00+00:00</time>
        <ele>2447.0</ele>
      </trkpt>
      <trkpt lat="45.513553" lon="7.217953">
        <time>1970-01-01T00:00:00+00:00</time>
        <ele>2458.0</ele>
      </trkpt>
      <trkpt lat="45.513658" lon="7.217743">
        <time>1970-01-01T00:00:00+00:00</time>
        <ele>2453.0</ele>
      </trkpt>
      <trkpt lat="45.513929" lon="7.217619">
        <time>1970-01-01T00:00:00+00:00</time>
        <ele>2459.0</ele>
      </trkpt>
      <trkpt lat="45.513684" lon="7.21803">
        <time>1970-01-01T00:00:00+00:00</time>
        <ele>2466.0</ele>
      </trkpt>
      <trkpt lat="45.513447" lon="7.218639">
        <time>1970-01-01T00:00:00+00:00</time>
        <ele>2469.0</ele>
      </trkpt>
      <trkpt lat="45.513363" lon="7.218725">
        <time>1970-01-01T00:00:00+00:00</time>
        <ele>2466.0</ele>
      </trkpt>
      <trkpt lat="45.51326" lon="7.219125">
        <time>1970-01-01T00:00:00+00:00</time>
        <ele>2467.0</ele>
      </trkpt>
      <trkpt lat="45.513205" lon="7.219649">
        <time>1970-01-01T00:00:00+00:00</time>
        <ele>2478.0</ele>
      </trkpt>
      <trkpt lat="45.51328" lon="7.219724">
        <time>1970-01-01T00:00:00+00:00</time>
        <ele>2483.0</ele>
      </trkpt>
      <trkpt lat="45.513555" lon="7.219044">
        <time>1970-01-01T00:00:00+00:00</time>
        <ele>2483.0</ele>
      </trkpt>
      <trkpt lat="45.513651" lon="7.220197">
        <time>1970-01-01T00:00:00+00:00</time>
        <ele>2510.0</ele>
      </trkpt>
      <trkpt lat="45.51359" lon="7.220588">
        <time>1970-01-01T00:00:00+00:00</time>
        <ele>2516.0</ele>
      </trkpt>
      <trkpt lat="45.513427" lon="7.220741">
        <time>1970-01-01T00:00:00+00:00</time>
        <ele>2516.0</ele>
      </trkpt>
      <trkpt lat="45.513374" lon="7.221005">
        <time>1970-01-01T00:00:00+00:00</time>
        <ele>2526.0</ele>
      </trkpt>
      <trkpt lat="45.513547" lon="7.220916">
        <time>1970-01-01T00:00:00+00:00</time>
        <ele>2528.0</ele>
      </trkpt>
      <trkpt lat="45.513565" lon="7.221051">
        <time>1970-01-01T00:00:00+00:00</time>
        <ele>2535.0</ele>
      </trkpt>
      <trkpt lat="45.513448" lon="7.221575">
        <time>1970-01-01T00:00:00+00:00</time>
        <ele>2549.0</ele>
      </trkpt>
      <trkpt lat="45.513615" lon="7.221439">
        <time>1970-01-01T00:00:00+00:00</time>
        <ele>2552.0</ele>
      </trkpt>
      <trkpt lat="45.513628" lon="7.221576">
        <time>1970-01-01T00:00:00+00:00</time>
        <ele>2556.0</ele>
      </trkpt>
      <trkpt lat="45.513497" lon="7.221934">
        <time>1970-01-01T00:00:00+00:00</time>
        <ele>2559.0</ele>
      </trkpt>
      <trkpt lat="45.513591" lon="7.221923">
        <time>1970-01-01T00:00:00+00:00</time>
        <ele>2563.0</ele>
      </trkpt>
      <trkpt lat="45.513801" lon="7.221643">
        <time>1970-01-01T00:00:00+00:00</time>
        <ele>2567.0</ele>
      </trkpt>
      <trkpt lat="45.513544" lon="7.222518">
        <time>1970-01-01T00:00:00+00:00</time>
        <ele>2589.0</ele>
      </trkpt>
      <trkpt lat="45.513253" lon="7.22307">
        <time>1970-01-01T00:00:00+00:00</time>
        <ele>2593.0</ele>
      </trkpt>
      <trkpt lat="45.513136" lon="7.223424">
        <time>1970-01-01T00:00:00+00:00</time>
        <ele>2596.0</ele>
      </trkpt>
      <trkpt lat="45.513046" lon="7.224243">
        <time>1970-01-01T00:00:00+00:00</time>
        <ele>2610.0</ele>
      </trkpt>
      <trkpt lat="45.512952" lon="7.224619">
        <time>1970-01-01T00:00:00+00:00</time>
        <ele>2615.0</ele>
      </trkpt>
      <trkpt lat="45.512944" lon="7.225041">
        <time>1970-01-01T00:00:00+00:00</time>
        <ele>2626.0</ele>
      </trkpt>
      <trkpt lat="45.51283" lon="7.225246">
        <time>1970-01-01T00:00:00+00:00</time>
        <ele>2626.0</ele>
      </trkpt>
      <trkpt lat="45.512724" lon="7.225629">
        <time>1970-01-01T00:00:00+00:00</time>
        <ele>2640.0</ele>
      </trkpt>
      <trkpt lat="45.512539" lon="7.225774">
        <time>1970-01-01T00:00:00+00:00</time>
        <ele>2641.0</ele>
      </trkpt>
      <trkpt lat="45.512629" lon="7.225761">
        <time>1970-01-01T00:00:00+00:00</time>
        <ele>2643.0</ele>
      </trkpt>
      <trkpt lat="45.512619" lon="7.225898">
        <time>1970-01-01T00:00:00+00:00</time>
        <ele>2648.0</ele>
      </trkpt>
      <trkpt lat="45.512466" lon="7.226073">
        <time>1970-01-01T00:00:00+00:00</time>
        <ele>2650.0</ele>
      </trkpt>
      <trkpt lat="45.512488" lon="7.226476">
        <time>1970-01-01T00:00:00+00:00</time>
        <ele>2664.0</ele>
      </trkpt>
      <trkpt lat="45.512314" lon="7.226967">
        <time>1970-01-01T00:00:00+00:00</time>
        <ele>2671.0</ele>
      </trkpt>
      <trkpt lat="45.512321" lon="7.227094">
        <time>1970-01-01T00:00:00+00:00</time>
        <ele>2673.0</ele>
      </trkpt>
      <trkpt lat="45.512411" lon="7.227147">
        <time>1970-01-01T00:00:00+00:00</time>
        <ele>2675.0</ele>
      </trkpt>
      <trkpt lat="45.512364" lon="7.227391">
        <time>1970-01-01T00:00:00+00:00</time>
        <ele>2678.0</ele>
      </trkpt>
      <trkpt lat="45.512419" lon="7.228176">
        <time>1970-01-01T00:00:00+00:00</time>
        <ele>2692.0</ele>
      </trkpt>
      <trkpt lat="45.512607" lon="7.228501">
        <time>1970-01-01T00:00:00+00:00</time>
        <ele>2698.0</ele>
      </trkpt>
      <trkpt lat="45.51279" lon="7.228502">
        <time>1970-01-01T00:00:00+00:00</time>
        <ele>2698.0</ele>
      </trkpt>
      <trkpt lat="45.512815" lon="7.228627">
        <time>1970-01-01T00:00:00+00:00</time>
        <ele>2700.0</ele>
      </trkpt>
      <trkpt lat="45.512783" lon="7.228749">
        <time>1970-01-01T00:00:00+00:00</time>
        <ele>2703.0</ele>
      </trkpt>
      <trkpt lat="45.512619" lon="7.228887">
        <time>1970-01-01T00:00:00+00:00</time>
        <ele>2704.0</ele>
      </trkpt>
      <trkpt lat="45.512657" lon="7.229015">
        <time>1970-01-01T00:00:00+00:00</time>
        <ele>2707.0</ele>
      </trkpt>
      <trkpt lat="45.512497" lon="7.229342">
        <time>1970-01-01T00:00:00+00:00</time>
        <ele>2712.0</ele>
      </trkpt>
      <trkpt lat="45.512475" lon="7.229749">
        <time>1970-01-01T00:00:00+00:00</time>
        <ele>2716.0</ele>
      </trkpt>
      <trkpt lat="45.512556" lon="7.22969">
        <time>1970-01-01T00:00:00+00:00</time>
        <ele>2717.0</ele>
      </trkpt>
      <trkpt lat="45.51252" lon="7.229814">
        <time>1970-01-01T00:00:00+00:00</time>
        <ele>2717.0</ele>
      </trkpt>
      <trkpt lat="45.512425" lon="7.229582">
        <time>1970-01-01T00:00:00+00:00</time>
        <ele>2714.0</ele>
      </trkpt>
      <trkpt lat="45.512246" lon="7.22951">
        <time>1970-01-01T00:00:00+00:00</time>
        <ele>2710.0</ele>
      </trkpt>
      <trkpt lat="45.512004" lon="7.230104">
        <time>1970-01-01T00:00:00+00:00</time>
        <ele>2710.0</ele>
      </trkpt>
      <trkpt lat="45.511663" lon="7.230553">
        <time>1970-01-01T00:00:00+00:00</time>
        <ele>2714.0</ele>
      </trkpt>
      <trkpt lat="45.511378" lon="7.231068">
        <time>1970-01-01T00:00:00+00:00</time>
        <ele>2726.0</ele>
      </trkpt>
      <trkpt lat="45.510473" lon="7.231566">
        <time>1970-01-01T00:00:00+00:00</time>
        <ele>2732.0</ele>
      </trkpt>
      <trkpt lat="45.509915" lon="7.232094">
        <time>1970-01-01T00:00:00+00:00</time>
        <ele>2736.0</ele>
      </trkpt>
      <trkpt lat="45.509882" lon="7.23222">
        <time>1970-01-01T00:00:00+00:00</time>
        <ele>2739.0</ele>
      </trkpt>
      <trkpt lat="45.509726" lon="7.232372">
        <time>1970-01-01T00:00:00+00:00</time>
        <ele>2744.0</ele>
      </trkpt>
      <trkpt lat="45.508967" lon="7.232476">
        <time>1970-01-01T00:00:00+00:00</time>
        <ele>2753.0</ele>
      </trkpt>
      <trkpt lat="45.508696" lon="7.232602">
        <time>1970-01-01T00:00:00+00:00</time>
        <ele>2755.0</ele>
      </trkpt>
      <trkpt lat="45.508481" lon="7.232868">
        <time>1970-01-01T00:00:00+00:00</time>
        <ele>2759.0</ele>
      </trkpt>
      <trkpt lat="45.508292" lon="7.23334">
        <time>1970-01-01T00:00:00+00:00</time>
        <ele>2764.0</ele>
      </trkpt>
      <trkpt lat="45.508151" lon="7.233498">
        <time>1970-01-01T00:00:00+00:00</time>
        <ele>2766.0</ele>
      </trkpt>
      <trkpt lat="45.50794" lon="7.234092">
        <time>1970-01-01T00:00:00+00:00</time>
        <ele>2774.0</ele>
      </trkpt>
      <trkpt lat="45.507597" lon="7.234579">
        <time>1970-01-01T00:00:00+00:00</time>
        <ele>2783.0</ele>
      </trkpt>
      <trkpt lat="45.507508" lon="7.234636">
        <time>1970-01-01T00:00:00+00:00</time>
        <ele>2787.0</ele>
      </trkpt>
      <trkpt lat="45.507344" lon="7.234507">
        <time>1970-01-01T00:00:00+00:00</time>
        <ele>2792.0</ele>
      </trkpt>
      <trkpt lat="45.507027" lon="7.234792">
        <time>1970-01-01T00:00:00+00:00</time>
        <ele>2801.0</ele>
      </trkpt>
      <trkpt lat="45.506684" lon="7.234981">
        <time>1970-01-01T00:00:00+00:00</time>
        <ele>2809.0</ele>
      </trkpt>
      <trkpt lat="45.506534" lon="7.235134">
        <time>1970-01-01T00:00:00+00:00</time>
        <ele>2813.0</ele>
      </trkpt>
      <trkpt lat="45.506505" lon="7.235258">
        <time>1970-01-01T00:00:00+00:00</time>
        <ele>2815.0</ele>
      </trkpt>
      <trkpt lat="45.506131" lon="7.2352">
        <time>1970-01-01T00:00:00+00:00</time>
        <ele>2821.0</ele>
      </trkpt>
      <trkpt lat="45.505794" lon="7.235459">
        <time>1970-01-01T00:00:00+00:00</time>
        <ele>2830.0</ele>
      </trkpt>
      <trkpt lat="45.505185" lon="7.235735">
        <time>1970-01-01T00:00:00+00:00</time>
        <ele>2847.0</ele>
      </trkpt>
      <trkpt lat="45.505118" lon="7.235828">
        <time>1970-01-01T00:00:00+00:00</time>
        <ele>2850.0</ele>
      </trkpt>
      <trkpt lat="45.504847" lon="7.235892">
        <time>1970-01-01T00:00:00+00:00</time>
        <ele>2857.0</ele>
      </trkpt>
      <trkpt lat="45.504717" lon="7.236393">
        <time>1970-01-01T00:00:00+00:00</time>
        <ele>2869.0</ele>
      </trkpt>
      <trkpt lat="45.50461" lon="7.236611">
        <time>1970-01-01T00:00:00+00:00</time>
        <ele>2875.0</ele>
      </trkpt>
      <trkpt lat="45.504339" lon="7.236703">
        <time>1970-01-01T00:00:00+00:00</time>
        <ele>2882.0</ele>
      </trkpt>
      <trkpt lat="45.503278" lon="7.236606">
        <time>1970-01-01T00:00:00+00:00</time>
        <ele>2885.0</ele>
      </trkpt>
      <trkpt lat="45.502548" lon="7.236274">
        <time>1970-01-01T00:00:00+00:00</time>
        <ele>2892.0</ele>
      </trkpt>
      <trkpt lat="45.501792" lon="7.236157">
        <time>1970-01-01T00:00:00+00:00</time>
        <ele>2900.0</ele>
      </trkpt>
      <trkpt lat="45.501352" lon="7.235956">
        <time>1970-01-01T00:00:00+00:00</time>
        <ele>2903.0</ele>
      </trkpt>
      <trkpt lat="45.501071" lon="7.235976">
        <time>1970-01-01T00:00:00+00:00</time>
        <ele>2906.0</ele>
      </trkpt>
      <trkpt lat="45.500536" lon="7.23619">
        <time>1970-01-01T00:00:00+00:00</time>
        <ele>2917.0</ele>
      </trkpt>
      <trkpt lat="45.500078" lon="7.236035">
        <time>1970-01-01T00:00:00+00:00</time>
        <ele>2918.0</ele>
      </trkpt>
      <trkpt lat="45.499421" lon="7.236096">
        <time>1970-01-01T00:00:00+00:00</time>
        <ele>2928.0</ele>
      </trkpt>
      <trkpt lat="45.49915" lon="7.235993">
        <time>1970-01-01T00:00:00+00:00</time>
        <ele>2934.0</ele>
      </trkpt>
      <trkpt lat="45.498917" lon="7.235585">
        <time>1970-01-01T00:00:00+00:00</time>
        <ele>2933.0</ele>
      </trkpt>
      <trkpt lat="45.49844" lon="7.235647">
        <time>1970-01-01T00:00:00+00:00</time>
        <ele>2933.0</ele>
      </trkpt>
      <trkpt lat="45.498259" lon="7.235767">
        <time>1970-01-01T00:00:00+00:00</time>
        <ele>2935.0</ele>
      </trkpt>
      <trkpt lat="45.498075" lon="7.235759">
        <time>1970-01-01T00:00:00+00:00</time>
        <ele>2929.0</ele>
      </trkpt>
      <trkpt lat="45.497486" lon="7.236175">
        <time>1970-01-01T00:00:00+00:00</time>
        <ele>2931.0</ele>
      </trkpt>
      <trkpt lat="45.496266" lon="7.23618">
        <time>1970-01-01T00:00:00+00:00</time>
        <ele>2944.0</ele>
      </trkpt>
      <trkpt lat="45.49585" lon="7.236484">
        <time>1970-01-01T00:00:00+00:00</time>
        <ele>2963.0</ele>
      </trkpt>
      <trkpt lat="45.494858" lon="7.236804">
        <time>1970-01-01T00:00:00+00:00</time>
        <ele>2976.0</ele>
      </trkpt>
      <trkpt lat="45.49438" lon="7.237208">
        <time>1970-01-01T00:00:00+00:00</time>
        <ele>2995.0</ele>
      </trkpt>
      <trkpt lat="45.493954" lon="7.237464">
        <time>1970-01-01T00:00:00+00:00</time>
        <ele>3011.0</ele>
      </trkpt>
      <trkpt lat="45.493147" lon="7.237734">
        <time>1970-01-01T00:00:00+00:00</time>
        <ele>3032.0</ele>
      </trkpt>
      <trkpt lat="45.4926" lon="7.237831">
        <time>1970-01-01T00:00:00+00:00</time>
        <ele>3049.0</ele>
      </trkpt>
      <trkpt lat="45.492451" lon="7.237969">
        <time>1970-01-01T00:00:00+00:00</time>
        <ele>3057.0</ele>
      </trkpt>
      <trkpt lat="45.492166" lon="7.238059">
        <time>1970-01-01T00:00:00+00:00</time>
        <ele>3067.0</ele>
      </trkpt>
      <trkpt lat="45.491996" lon="7.238178">
        <time>1970-01-01T00:00:00+00:00</time>
        <ele>3074.0</ele>
      </trkpt>
      <trkpt lat="45.491974" lon="7.238308">
        <time>1970-01-01T00:00:00+00:00</time>
        <ele>3079.0</ele>
      </trkpt>
      <trkpt lat="45.491709" lon="7.238669">
        <time>1970-01-01T00:00:00+00:00</time>
        <ele>3097.0</ele>
      </trkpt>
      <trkpt lat="45.491572" lon="7.23899">
        <time>1970-01-01T00:00:00+00:00</time>
        <ele>3111.0</ele>
      </trkpt>
      <trkpt lat="45.491235" lon="7.239232">
        <time>1970-01-01T00:00:00+00:00</time>
        <ele>3122.0</ele>
      </trkpt>
      <trkpt lat="45.490867" lon="7.239646">
        <time>1970-01-01T00:00:00+00:00</time>
        <ele>3149.0</ele>
      </trkpt>
      <trkpt lat="45.489911" lon="7.240453">
        <time>1970-01-01T00:00:00+00:00</time>
        <ele>3209.0</ele>
      </trkpt>
      <trkpt lat="45.48973" lon="7.240503">
        <time>1970-01-01T00:00:00+00:00</time>
        <ele>3224.0</ele>
      </trkpt>
      <trkpt lat="45.489179" lon="7.240032">
        <time>1970-01-01T00:00:00+00:00</time>
        <ele>3241.0</ele>
      </trkpt>
      <trkpt lat="45.488741" lon="7.239832">
        <time>1970-01-01T00:00:00+00:00</time>
        <ele>3274.0</ele>
      </trkpt>
      <trkpt lat="45.488568" lon="7.239535">
        <time>1970-01-01T00:00:00+00:00</time>
        <ele>3277.0</ele>
      </trkpt>
      <trkpt lat="45.488385" lon="7.239502">
        <time>1970-01-01T00:00:00+00:00</time>
        <ele>3292.0</ele>
      </trkpt>
      <trkpt lat="45.488115" lon="7.239572">
        <time>1970-01-01T00:00:00+00:00</time>
        <ele>3310.0</ele>
      </trkpt>
      <trkpt lat="45.487946" lon="7.239466">
        <time>1970-01-01T00:00:00+00:00</time>
        <ele>3315.0</ele>
      </trkpt>
      <trkpt lat="45.487592" lon="7.239633">
        <time>1970-01-01T00:00:00+00:00</time>
        <ele>3322.0</ele>
      </trkpt>
      <trkpt lat="45.48744" lon="7.239492">
        <time>1970-01-01T00:00:00+00:00</time>
        <ele>3324.0</ele>
      </trkpt>
      <trkpt lat="45.487215" lon="7.238968">
        <time>1970-01-01T00:00:00+00:00</time>
        <ele>3337.0</ele>
      </trkpt>
      <trkpt lat="45.487123" lon="7.238997">
        <time>1970-01-01T00:00:00+00:00</time>
        <ele>3334.0</ele>
      </trkpt>
      <trkpt lat="45.487054" lon="7.238909">
        <time>1970-01-01T00:00:00+00:00</time>
        <ele>3336.0</ele>
      </trkpt>
      <trkpt lat="45.486503" lon="7.238024">
        <time>1970-01-01T00:00:00+00:00</time>
        <ele>3380.0</ele>
      </trkpt>
      <trkpt lat="45.486344" lon="7.237413">
        <time>1970-01-01T00:00:00+00:00</time>
        <ele>3390.0</ele>
      </trkpt>
      <trkpt lat="45.485819" lon="7.23651">
        <time>1970-01-01T00:00:00+00:00</time>
        <ele>3422.0</ele>
      </trkpt>
      <trkpt lat="45.485208" lon="7.235543">
        <time>1970-01-01T00:00:00+00:00</time>
        <ele>3418.0</ele>
      </trkpt>
      <trkpt lat="45.48505" lon="7.235436">
        <time>1970-01-01T00:00:00+00:00</time>
        <ele>3418.0</ele>
      </trkpt>
      <trkpt lat="45.485215" lon="7.23555">
        <time>1970-01-01T00:00:00+00:00</time>
        <ele>3418.0</ele>
      </trkpt>
      <trkpt lat="45.485566" lon="7.236166">
        <time>1970-01-01T00:00:00+00:00</time>
        <ele>3423.0</ele>
      </trkpt>
      <trkpt lat="45.485848" lon="7.236534">
        <time>1970-01-01T00:00:00+00:00</time>
        <ele>3422.0</ele>
      </trkpt>
      <trkpt lat="45.486306" lon="7.237348">
        <time>1970-01-01T00:00:00+00:00</time>
        <ele>3391.0</ele>
      </trkpt>
      <trkpt lat="45.486485" lon="7.237977">
        <time>1970-01-01T00:00:00+00:00</time>
        <ele>3381.0</ele>
      </trkpt>
      <trkpt lat="45.486713" lon="7.238406">
        <time>1970-01-01T00:00:00+00:00</time>
        <ele>3361.0</ele>
      </trkpt>
      <trkpt lat="45.487097" lon="7.238993">
        <time>1970-01-01T00:00:00+00:00</time>
        <ele>3334.0</ele>
      </trkpt>
      <trkpt lat="45.487188" lon="7.238973">
        <time>1970-01-01T00:00:00+00:00</time>
        <ele>3336.0</ele>
      </trkpt>
      <trkpt lat="45.487252" lon="7.239068">
        <time>1970-01-01T00:00:00+00:00</time>
        <ele>3334.0</ele>
      </trkpt>
      <trkpt lat="45.48736" lon="7.239425">
        <time>1970-01-01T00:00:00+00:00</time>
        <ele>3324.0</ele>
      </trkpt>
      <trkpt lat="45.487433" lon="7.239508">
        <time>1970-01-01T00:00:00+00:00</time>
        <ele>3323.0</ele>
      </trkpt>
      <trkpt lat="45.487598" lon="7.23962">
        <time>1970-01-01T00:00:00+00:00</time>
        <ele>3323.0</ele>
      </trkpt>
      <trkpt lat="45.488159" lon="7.239609">
        <time>1970-01-01T00:00:00+00:00</time>
        <ele>3309.0</ele>
      </trkpt>
      <trkpt lat="45.488432" lon="7.239505">
        <time>1970-01-01T00:00:00+00:00</time>
        <ele>3288.0</ele>
      </trkpt>
      <trkpt lat="45.488782" lon="7.239899">
        <time>1970-01-01T00:00:00+00:00</time>
        <ele>3274.0</ele>
      </trkpt>
      <trkpt lat="45.489223" lon="7.240107">
        <time>1970-01-01T00:00:00+00:00</time>
        <ele>3242.0</ele>
      </trkpt>
      <trkpt lat="45.489602" lon="7.240458">
        <time>1970-01-01T00:00:00+00:00</time>
        <ele>3232.0</ele>
      </trkpt>
      <trkpt lat="45.489772" lon="7.240541">
        <time>1970-01-01T00:00:00+00:00</time>
        <ele>3223.0</ele>
      </trkpt>
      <trkpt lat="45.490263" lon="7.240185">
        <time>1970-01-01T00:00:00+00:00</time>
        <ele>3180.0</ele>
      </trkpt>
      <trkpt lat="45.490575" lon="7.239905">
        <time>1970-01-01T00:00:00+00:00</time>
        <ele>3161.0</ele>
      </trkpt>
      <trkpt lat="45.490619" lon="7.239788">
        <time>1970-01-01T00:00:00+00:00</time>
        <ele>3158.0</ele>
      </trkpt>
      <trkpt lat="45.490975" lon="7.23964">
        <time>1970-01-01T00:00:00+00:00</time>
        <ele>3145.0</ele>
      </trkpt>
      <trkpt lat="45.49111" lon="7.23946">
        <time>1970-01-01T00:00:00+00:00</time>
        <ele>3135.0</ele>
      </trkpt>
      <trkpt lat="45.491536" lon="7.239193">
        <time>1970-01-01T00:00:00+00:00</time>
        <ele>3116.0</ele>
      </trkpt>
      <trkpt lat="45.49184" lon="7.238874">
        <time>1970-01-01T00:00:00+00:00</time>
        <ele>3102.0</ele>
      </trkpt>
      <trkpt lat="45.492204" lon="7.238732">
        <time>1970-01-01T00:00:00+00:00</time>
        <ele>3095.0</ele>
      </trkpt>
      <trkpt lat="45.492486" lon="7.238392">
        <time>1970-01-01T00:00:00+00:00</time>
        <ele>3073.0</ele>
      </trkpt>
      <trkpt lat="45.493724" lon="7.237878">
        <time>1970-01-01T00:00:00+00:00</time>
        <ele>3032.0</ele>
      </trkpt>
      <trkpt lat="45.494136" lon="7.237551">
        <time>1970-01-01T00:00:00+00:00</time>
        <ele>3011.0</ele>
      </trkpt>
      <trkpt lat="45.49481" lon="7.236818">
        <time>1970-01-01T00:00:00+00:00</time>
        <ele>2977.0</ele>
      </trkpt>
      <trkpt lat="45.494989" lon="7.236718">
        <time>1970-01-01T00:00:00+00:00</time>
        <ele>2974.0</ele>
      </trkpt>
      <trkpt lat="45.495459" lon="7.236573">
        <time>1970-01-01T00:00:00+00:00</time>
        <ele>2969.0</ele>
      </trkpt>
      <trkpt lat="45.496214" lon="7.236533">
        <time>1970-01-01T00:00:00+00:00</time>
        <ele>2958.0</ele>
      </trkpt>
      <trkpt lat="45.496395" lon="7.23646">
        <time>1970-01-01T00:00:00+00:00</time>
        <ele>2954.0</ele>
      </trkpt>
      <trkpt lat="45.496669" lon="7.236542">
        <time>1970-01-01T00:00:00+00:00</time>
        <ele>2952.0</ele>
      </trkpt>
      <trkpt lat="45.497328" lon="7.236462">
        <time>1970-01-01T00:00:00+00:00</time>
        <ele>2942.0</ele>
      </trkpt>
      <trkpt lat="45.497675" lon="7.236241">
        <time>1970-01-01T00:00:00+00:00</time>
        <ele>2940.0</ele>
      </trkpt>
      <trkpt lat="45.498059" lon="7.235857">
        <time>1970-01-01T00:00:00+00:00</time>
        <ele>2933.0</ele>
      </trkpt>
      <trkpt lat="45.498484" lon="7.235617">
        <time>1970-01-01T00:00:00+00:00</time>
        <ele>2932.0</ele>
      </trkpt>
      <trkpt lat="45.49897" lon="7.235715">
        <time>1970-01-01T00:00:00+00:00</time>
        <ele>2936.0</ele>
      </trkpt>
      <trkpt lat="45.499207" lon="7.235936">
        <time>1970-01-01T00:00:00+00:00</time>
        <ele>2932.0</ele>
      </trkpt>
      <trkpt lat="45.499391" lon="7.236001">
        <time>1970-01-01T00:00:00+00:00</time>
        <ele>2927.0</ele>
      </trkpt>
      <trkpt lat="45.499685" lon="7.235994">
        <time>1970-01-01T00:00:00+00:00</time>
        <ele>2922.0</ele>
      </trkpt>
      <trkpt lat="45.500154" lon="7.235824">
        <time>1970-01-01T00:00:00+00:00</time>
        <ele>2913.0</ele>
      </trkpt>
      <trkpt lat="45.500611" lon="7.236001">
        <time>1970-01-01T00:00:00+00:00</time>
        <ele>2911.0</ele>
      </trkpt>
      <trkpt lat="45.500887" lon="7.235878">
        <time>1970-01-01T00:00:00+00:00</time>
        <ele>2905.0</ele>
      </trkpt>
      <trkpt lat="45.50214" lon="7.235757">
        <time>1970-01-01T00:00:00+00:00</time>
        <ele>2888.0</ele>
      </trkpt>
      <trkpt lat="45.503431" lon="7.235351">
        <time>1970-01-01T00:00:00+00:00</time>
        <ele>2878.0</ele>
      </trkpt>
      <trkpt lat="45.503991" lon="7.235088">
        <time>1970-01-01T00:00:00+00:00</time>
        <ele>2873.0</ele>
      </trkpt>
      <trkpt lat="45.504265" lon="7.235173">
        <time>1970-01-01T00:00:00+00:00</time>
        <ele>2869.0</ele>
      </trkpt>
      <trkpt lat="45.504526" lon="7.235038">
        <time>1970-01-01T00:00:00+00:00</time>
        <ele>2859.0</ele>
      </trkpt>
      <trkpt lat="45.50492" lon="7.235102">
        <time>1970-01-01T00:00:00+00:00</time>
        <ele>2844.0</ele>
      </trkpt>
      <trkpt lat="45.505497" lon="7.235035">
        <time>1970-01-01T00:00:00+00:00</time>
        <ele>2828.0</ele>
      </trkpt>
      <trkpt lat="45.505964" lon="7.234895">
        <time>1970-01-01T00:00:00+00:00</time>
        <ele>2818.0</ele>
      </trkpt>
      <trkpt lat="45.506514" lon="7.234665">
        <time>1970-01-01T00:00:00+00:00</time>
        <ele>2809.0</ele>
      </trkpt>
      <trkpt lat="45.506616" lon="7.23445">
        <time>1970-01-01T00:00:00+00:00</time>
        <ele>2804.0</ele>
      </trkpt>
      <trkpt lat="45.507177" lon="7.23422">
        <time>1970-01-01T00:00:00+00:00</time>
        <ele>2793.0</ele>
      </trkpt>
      <trkpt lat="45.507246" lon="7.23413">
        <time>1970-01-01T00:00:00+00:00</time>
        <ele>2791.0</ele>
      </trkpt>
      <trkpt lat="45.507417" lon="7.234205">
        <time>1970-01-01T00:00:00+00:00</time>
        <ele>2787.0</ele>
      </trkpt>
      <trkpt lat="45.507509" lon="7.234168">
        <time>1970-01-01T00:00:00+00:00</time>
        <ele>2783.0</ele>
      </trkpt>
      <trkpt lat="45.507886" lon="7.233413">
        <time>1970-01-01T00:00:00+00:00</time>
        <ele>2767.0</ele>
      </trkpt>
      <trkpt lat="45.50837" lon="7.232964">
        <time>1970-01-01T00:00:00+00:00</time>
        <ele>2761.0</ele>
      </trkpt>
      <trkpt lat="45.508959" lon="7.232558">
        <time>1970-01-01T00:00:00+00:00</time>
        <ele>2754.0</ele>
      </trkpt>
      <trkpt lat="45.509426" lon="7.232382">
        <time>1970-01-01T00:00:00+00:00</time>
        <ele>2748.0</ele>
      </trkpt>
      <trkpt lat="45.509608" lon="7.232382">
        <time>1970-01-01T00:00:00+00:00</time>
        <ele>2745.0</ele>
      </trkpt>
      <trkpt lat="45.510661" lon="7.231382">
        <time>1970-01-01T00:00:00+00:00</time>
        <ele>2731.0</ele>
      </trkpt>
      <trkpt lat="45.511396" lon="7.231007">
        <time>1970-01-01T00:00:00+00:00</time>
        <ele>2724.0</ele>
      </trkpt>
      <trkpt lat="45.512017" lon="7.230135">
        <time>1970-01-01T00:00:00+00:00</time>
        <ele>2711.0</ele>
      </trkpt>
      <trkpt lat="45.512273" lon="7.229557">
        <time>1970-01-01T00:00:00+00:00</time>
        <ele>2711.0</ele>
      </trkpt>
      <trkpt lat="45.512342" lon="7.229463">
        <time>1970-01-01T00:00:00+00:00</time>
        <ele>2711.0</ele>
      </trkpt>
      <trkpt lat="45.512428" lon="7.22952">
        <time>1970-01-01T00:00:00+00:00</time>
        <ele>2714.0</ele>
      </trkpt>
      <trkpt lat="45.512505" lon="7.229426">
        <time>1970-01-01T00:00:00+00:00</time>
        <ele>2714.0</ele>
      </trkpt>
      <trkpt lat="45.512819" lon="7.228596">
        <time>1970-01-01T00:00:00+00:00</time>
        <ele>2700.0</ele>
      </trkpt>
      <trkpt lat="45.512782" lon="7.228468">
        <time>1970-01-01T00:00:00+00:00</time>
        <ele>2697.0</ele>
      </trkpt>
      <trkpt lat="45.512596" lon="7.228457">
        <time>1970-01-01T00:00:00+00:00</time>
        <ele>2697.0</ele>
      </trkpt>
      <trkpt lat="45.512473" lon="7.228237">
        <time>1970-01-01T00:00:00+00:00</time>
        <ele>2694.0</ele>
      </trkpt>
      <trkpt lat="45.512406" lon="7.227718">
        <time>1970-01-01T00:00:00+00:00</time>
        <ele>2684.0</ele>
      </trkpt>
      <trkpt lat="45.512415" lon="7.227307">
        <time>1970-01-01T00:00:00+00:00</time>
        <ele>2677.0</ele>
      </trkpt>
      <trkpt lat="45.512489" lon="7.227228">
        <time>1970-01-01T00:00:00+00:00</time>
        <ele>2677.0</ele>
      </trkpt>
      <trkpt lat="45.512444" lon="7.227102">
        <time>1970-01-01T00:00:00+00:00</time>
        <ele>2675.0</ele>
      </trkpt>
      <trkpt lat="45.512353" lon="7.227085">
        <time>1970-01-01T00:00:00+00:00</time>
        <ele>2673.0</ele>
      </trkpt>
      <trkpt lat="45.512298" lon="7.226675">
        <time>1970-01-01T00:00:00+00:00</time>
        <ele>2666.0</ele>
      </trkpt>
      <trkpt lat="45.512526" lon="7.226257">
        <time>1970-01-01T00:00:00+00:00</time>
        <ele>2657.0</ele>
      </trkpt>
      <trkpt lat="45.512522" lon="7.225996">
        <time>1970-01-01T00:00:00+00:00</time>
        <ele>2649.0</ele>
      </trkpt>
      <trkpt lat="45.512666" lon="7.225819">
        <time>1970-01-01T00:00:00+00:00</time>
        <ele>2646.0</ele>
      </trkpt>
      <trkpt lat="45.51257" lon="7.225823">
        <time>1970-01-01T00:00:00+00:00</time>
        <ele>2643.0</ele>
      </trkpt>
      <trkpt lat="45.512739" lon="7.225642">
        <time>1970-01-01T00:00:00+00:00</time>
        <ele>2641.0</ele>
      </trkpt>
      <trkpt lat="45.512839" lon="7.225378">
        <time>1970-01-01T00:00:00+00:00</time>
        <ele>2632.0</ele>
      </trkpt>
      <trkpt lat="45.512824" lon="7.225252">
        <time>1970-01-01T00:00:00+00:00</time>
        <ele>2626.0</ele>
      </trkpt>
      <trkpt lat="45.512936" lon="7.22504">
        <time>1970-01-01T00:00:00+00:00</time>
        <ele>2626.0</ele>
      </trkpt>
      <trkpt lat="45.513006" lon="7.22466">
        <time>1970-01-01T00:00:00+00:00</time>
        <ele>2619.0</ele>
      </trkpt>
      <trkpt lat="45.513192" lon="7.223209">
        <time>1970-01-01T00:00:00+00:00</time>
        <ele>2593.0</ele>
      </trkpt>
      <trkpt lat="45.513443" lon="7.222792">
        <time>1970-01-01T00:00:00+00:00</time>
        <ele>2593.0</ele>
      </trkpt>
      <trkpt lat="45.513653" lon="7.2223">
        <time>1970-01-01T00:00:00+00:00</time>
        <ele>2583.0</ele>
      </trkpt>
      <trkpt lat="45.513733" lon="7.221755">
        <time>1970-01-01T00:00:00+00:00</time>
        <ele>2565.0</ele>
      </trkpt>
      <trkpt lat="45.513803" lon="7.221662">
        <time>1970-01-01T00:00:00+00:00</time>
        <ele>2568.0</ele>
      </trkpt>
      <trkpt lat="45.513607" lon="7.221972">
        <time>1970-01-01T00:00:00+00:00</time>
        <ele>2565.0</ele>
      </trkpt>
      <trkpt lat="45.51368" lon="7.221556">
        <time>1970-01-01T00:00:00+00:00</time>
        <ele>2557.0</ele>
      </trkpt>
      <trkpt lat="45.513592" lon="7.221506">
        <time>1970-01-01T00:00:00+00:00</time>
        <ele>2553.0</ele>
      </trkpt>
      <trkpt lat="45.513507" lon="7.221569">
        <time>1970-01-01T00:00:00+00:00</time>
        <ele>2551.0</ele>
      </trkpt>
      <trkpt lat="45.513486" lon="7.221442">
        <time>1970-01-01T00:00:00+00:00</time>
        <ele>2547.0</ele>
      </trkpt>
      <trkpt lat="45.51364" lon="7.220936">
        <time>1970-01-01T00:00:00+00:00</time>
        <ele>2532.0</ele>
      </trkpt>
      <trkpt lat="45.513376" lon="7.221071">
        <time>1970-01-01T00:00:00+00:00</time>
        <ele>2529.0</ele>
      </trkpt>
      <trkpt lat="45.513391" lon="7.220939">
        <time>1970-01-01T00:00:00+00:00</time>
        <ele>2523.0</ele>
      </trkpt>
      <trkpt lat="45.513623" lon="7.220508">
        <time>1970-01-01T00:00:00+00:00</time>
        <ele>2515.0</ele>
      </trkpt>
      <trkpt lat="45.513685" lon="7.220247">
        <time>1970-01-01T00:00:00+00:00</time>
        <ele>2513.0</ele>
      </trkpt>
      <trkpt lat="45.513596" lon="7.219124">
        <time>1970-01-01T00:00:00+00:00</time>
        <ele>2487.0</ele>
      </trkpt>
      <trkpt lat="45.513513" lon="7.219199">
        <time>1970-01-01T00:00:00+00:00</time>
        <ele>2484.0</ele>
      </trkpt>
      <trkpt lat="45.513392" lon="7.219551">
        <time>1970-01-01T00:00:00+00:00</time>
        <ele>2486.0</ele>
      </trkpt>
      <trkpt lat="45.513261" lon="7.219738">
        <time>1970-01-01T00:00:00+00:00</time>
        <ele>2483.0</ele>
      </trkpt>
      <trkpt lat="45.513252" lon="7.219339">
        <time>1970-01-01T00:00:00+00:00</time>
        <ele>2472.0</ele>
      </trkpt>
      <trkpt lat="45.513428" lon="7.218713">
        <time>1970-01-01T00:00:00+00:00</time>
        <ele>2470.0</ele>
      </trkpt>
      <trkpt lat="45.513692" lon="7.218129">
        <time>1970-01-01T00:00:00+00:00</time>
        <ele>2468.0</ele>
      </trkpt>
      <trkpt lat="45.51401" lon="7.217598">
        <time>1970-01-01T00:00:00+00:00</time>
        <ele>2460.0</ele>
      </trkpt>
      <trkpt lat="45.513731" lon="7.217755">
        <time>1970-01-01T00:00:00+00:00</time>
        <ele>2457.0</ele>
      </trkpt>
      <trkpt lat="45.513426" lon="7.218116">
        <time>1970-01-01T00:00:00+00:00</time>
        <ele>2454.0</ele>
      </trkpt>
      <trkpt lat="45.513368" lon="7.218016">
        <time>1970-01-01T00:00:00+00:00</time>
        <ele>2448.0</ele>
      </trkpt>
      <trkpt lat="45.513513" lon="7.21752">
        <time>1970-01-01T00:00:00+00:00</time>
        <ele>2435.0</ele>
      </trkpt>
      <trkpt lat="45.513689" lon="7.217189">
        <time>1970-01-01T00:00:00+00:00</time>
        <ele>2430.0</ele>
      </trkpt>
      <trkpt lat="45.513735" lon="7.21693">
        <time>1970-01-01T00:00:00+00:00</time>
        <ele>2424.0</ele>
      </trkpt>
      <trkpt lat="45.51392" lon="7.216621">
        <time>1970-01-01T00:00:00+00:00</time>
        <ele>2419.0</ele>
      </trkpt>
      <trkpt lat="45.513863" lon="7.216506">
        <time>1970-01-01T00:00:00+00:00</time>
        <ele>2413.0</ele>
      </trkpt>
      <trkpt lat="45.513587" lon="7.216668">
        <time>1970-01-01T00:00:00+00:00</time>
        <ele>2410.0</ele>
      </trkpt>
      <trkpt lat="45.513492" lon="7.216615">
        <time>1970-01-01T00:00:00+00:00</time>
        <ele>2404.0</ele>
      </trkpt>
      <trkpt lat="45.513537" lon="7.216347">
        <time>1970-01-01T00:00:00+00:00</time>
        <ele>2398.0</ele>
      </trkpt>
      <trkpt lat="45.513647" lon="7.216119">
        <time>1970-01-01T00:00:00+00:00</time>
        <ele>2392.0</ele>
      </trkpt>
      <trkpt lat="45.513908" lon="7.21598">
        <time>1970-01-01T00:00:00+00:00</time>
        <ele>2391.0</ele>
      </trkpt>
      <trkpt lat="45.51423" lon="7.215326">
        <time>1970-01-01T00:00:00+00:00</time>
        <ele>2378.0</ele>
      </trkpt>
      <trkpt lat="45.514027" lon="7.21486">
        <time>1970-01-01T00:00:00+00:00</time>
        <ele>2366.0</ele>
      </trkpt>
      <trkpt lat="45.51411" lon="7.214806">
        <time>1970-01-01T00:00:00+00:00</time>
        <ele>2365.0</ele>
      </trkpt>
      <trkpt lat="45.514156" lon="7.214677">
        <time>1970-01-01T00:00:00+00:00</time>
        <ele>2361.0</ele>
      </trkpt>
      <trkpt lat="45.514251" lon="7.214704">
        <time>1970-01-01T00:00:00+00:00</time>
        <ele>2361.0</ele>
      </trkpt>
      <trkpt lat="45.514278" lon="7.214559">
        <time>1970-01-01T00:00:00+00:00</time>
        <ele>2358.0</ele>
      </trkpt>
      <trkpt lat="45.514107" lon="7.213755">
        <time>1970-01-01T00:00:00+00:00</time>
        <ele>2342.0</ele>
      </trkpt>
      <trkpt lat="45.514062" lon="7.213639">
        <time>1970-01-01T00:00:00+00:00</time>
        <ele>2338.0</ele>
      </trkpt>
      <trkpt lat="45.513976" lon="7.213594">
        <time>1970-01-01T00:00:00+00:00</time>
        <ele>2336.0</ele>
      </trkpt>
      <trkpt lat="45.514008" lon="7.213465">
        <time>1970-01-01T00:00:00+00:00</time>
        <ele>2334.0</ele>
      </trkpt>
      <trkpt lat="45.514286" lon="7.213547">
        <time>1970-01-01T00:00:00+00:00</time>
        <ele>2337.0</ele>
      </trkpt>
      <trkpt lat="45.514248" lon="7.21342">
        <time>1970-01-01T00:00:00+00:00</time>
        <ele>2334.0</ele>
      </trkpt>
      <trkpt lat="45.51403" lon="7.213154">
        <time>1970-01-01T00:00:00+00:00</time>
        <ele>2324.0</ele>
      </trkpt>
      <trkpt lat="45.51432" lon="7.213174">
        <time>1970-01-01T00:00:00+00:00</time>
        <ele>2324.0</ele>
      </trkpt>
      <trkpt lat="45.514281" lon="7.213041">
        <time>1970-01-01T00:00:00+00:00</time>
        <ele>2319.0</ele>
      </trkpt>
      <trkpt lat="45.514032" lon="7.212858">
        <time>1970-01-01T00:00:00+00:00</time>
        <ele>2308.0</ele>
      </trkpt>
      <trkpt lat="45.514092" lon="7.212759">
        <time>1970-01-01T00:00:00+00:00</time>
        <ele>2304.0</ele>
      </trkpt>
      <trkpt lat="45.51438" lon="7.212689">
        <time>1970-01-01T00:00:00+00:00</time>
        <ele>2299.0</ele>
      </trkpt>
      <trkpt lat="45.513928" lon="7.212386">
        <time>1970-01-01T00:00:00+00:00</time>
        <ele>2287.0</ele>
      </trkpt>
      <trkpt lat="45.514131" lon="7.212378">
        <time>1970-01-01T00:00:00+00:00</time>
        <ele>2288.0</ele>
      </trkpt>
      <trkpt lat="45.51385" lon="7.212">
        <time>1970-01-01T00:00:00+00:00</time>
        <ele>2271.0</ele>
      </trkpt>
      <trkpt lat="45.513752" lon="7.212035">
        <time>1970-01-01T00:00:00+00:00</time>
        <ele>2270.0</ele>
      </trkpt>
      <trkpt lat="45.513677" lon="7.211948">
        <time>1970-01-01T00:00:00+00:00</time>
        <ele>2264.0</ele>
      </trkpt>
      <trkpt lat="45.513741" lon="7.211845">
        <time>1970-01-01T00:00:00+00:00</time>
        <ele>2262.0</ele>
      </trkpt>
      <trkpt lat="45.514045" lon="7.211849">
        <time>1970-01-01T00:00:00+00:00</time>
        <ele>2266.0</ele>
      </trkpt>
      <trkpt lat="45.514144" lon="7.211912">
        <time>1970-01-01T00:00:00+00:00</time>
        <ele>2268.0</ele>
      </trkpt>
      <trkpt lat="45.514013" lon="7.211715">
        <time>1970-01-01T00:00:00+00:00</time>
        <ele>2261.0</ele>
      </trkpt>
      <trkpt lat="45.513662" lon="7.211453">
        <time>1970-01-01T00:00:00+00:00</time>
        <ele>2235.0</ele>
      </trkpt>
      <trkpt lat="45.513733" lon="7.211373">
        <time>1970-01-01T00:00:00+00:00</time>
        <ele>2231.0</ele>
      </trkpt>
      <trkpt lat="45.514223" lon="7.211376">
        <time>1970-01-01T00:00:00+00:00</time>
        <ele>2237.0</ele>
      </trkpt>
      <trkpt lat="45.514583" lon="7.211609">
        <time>1970-01-01T00:00:00+00:00</time>
        <ele>2245.0</ele>
      </trkpt>
      <trkpt lat="45.514174" lon="7.211024">
        <time>1970-01-01T00:00:00+00:00</time>
        <ele>2219.0</ele>
      </trkpt>
      <trkpt lat="45.514084" lon="7.210992">
        <time>1970-01-01T00:00:00+00:00</time>
        <ele>2218.0</ele>
      </trkpt>
      <trkpt lat="45.514149" lon="7.210893">
        <time>1970-01-01T00:00:00+00:00</time>
        <ele>2215.0</ele>
      </trkpt>
      <trkpt lat="45.514437" lon="7.210842">
        <time>1970-01-01T00:00:00+00:00</time>
        <ele>2209.0</ele>
      </trkpt>
      <trkpt lat="45.514587" lon="7.211002">
        <time>1970-01-01T00:00:00+00:00</time>
        <ele>2209.0</ele>
      </trkpt>
      <trkpt lat="45.514607" lon="7.21072">
        <time>1970-01-01T00:00:00+00:00</time>
        <ele>2197.0</ele>
      </trkpt>
      <trkpt lat="45.514689" lon="7.210773">
        <time>1970-01-01T00:00:00+00:00</time>
        <ele>2197.0</ele>
      </trkpt>
      <trkpt lat="45.514802" lon="7.21102">
        <time>1970-01-01T00:00:00+00:00</time>
        <ele>2203.0</ele>
      </trkpt>
      <trkpt lat="45.51508" lon="7.210936">
        <time>1970-01-01T00:00:00+00:00</time>
        <ele>2190.0</ele>
      </trkpt>
      <trkpt lat="45.515007" lon="7.210857">
        <time>1970-01-01T00:00:00+00:00</time>
        <ele>2190.0</ele>
      </trkpt>
      <trkpt lat="45.51529" lon="7.210892">
        <time>1970-01-01T00:00:00+00:00</time>
        <ele>2182.0</ele>
      </trkpt>
      <trkpt lat="45.515268" lon="7.210748">
        <time>1970-01-01T00:00:00+00:00</time>
        <ele>2174.0</ele>
      </trkpt>
      <trkpt lat="45.515184" lon="7.210674">
        <time>1970-01-01T00:00:00+00:00</time>
        <ele>2173.0</ele>
      </trkpt>
      <trkpt lat="45.515233" lon="7.210559">
        <time>1970-01-01T00:00:00+00:00</time>
        <ele>2165.0</ele>
      </trkpt>
      <trkpt lat="45.515035" lon="7.210524">
        <time>1970-01-01T00:00:00+00:00</time>
        <ele>2173.0</ele>
      </trkpt>
      <trkpt lat="45.514957" lon="7.210278">
        <time>1970-01-01T00:00:00+00:00</time>
        <ele>2166.0</ele>
      </trkpt>
      <trkpt lat="45.514993" lon="7.210158">
        <time>1970-01-01T00:00:00+00:00</time>
        <ele>2160.0</ele>
      </trkpt>
      <trkpt lat="45.514889" lon="7.210114">
        <time>1970-01-01T00:00:00+00:00</time>
        <ele>2163.0</ele>
      </trkpt>
      <trkpt lat="45.515061" lon="7.210006">
        <time>1970-01-01T00:00:00+00:00</time>
        <ele>2150.0</ele>
      </trkpt>
      <trkpt lat="45.515084" lon="7.209855">
        <time>1970-01-01T00:00:00+00:00</time>
        <ele>2142.0</ele>
      </trkpt>
      <trkpt lat="45.514594" lon="7.209633">
        <time>1970-01-01T00:00:00+00:00</time>
        <ele>2139.0</ele>
      </trkpt>
      <trkpt lat="45.514686" lon="7.209635">
        <time>1970-01-01T00:00:00+00:00</time>
        <ele>2137.0</ele>
      </trkpt>
      <trkpt lat="45.514551" lon="7.209429">
        <time>1970-01-01T00:00:00+00:00</time>
        <ele>2127.0</ele>
      </trkpt>
      <trkpt lat="45.514642" lon="7.209435">
        <time>1970-01-01T00:00:00+00:00</time>
        <ele>2124.0</ele>
      </trkpt>
      <trkpt lat="45.514717" lon="7.209334">
        <time>1970-01-01T00:00:00+00:00</time>
        <ele>2116.0</ele>
      </trkpt>
      <trkpt lat="45.51463" lon="7.209301">
        <time>1970-01-01T00:00:00+00:00</time>
        <ele>2117.0</ele>
      </trkpt>
      <trkpt lat="45.514721" lon="7.209261">
        <time>1970-01-01T00:00:00+00:00</time>
        <ele>2112.0</ele>
      </trkpt>
      <trkpt lat="45.514708" lon="7.20913">
        <time>1970-01-01T00:00:00+00:00</time>
        <ele>2104.0</ele>
      </trkpt>
      <trkpt lat="45.514607" lon="7.209147">
        <time>1970-01-01T00:00:00+00:00</time>
        <ele>2108.0</ele>
      </trkpt>
      <trkpt lat="45.514432" lon="7.209048">
        <time>1970-01-01T00:00:00+00:00</time>
        <ele>2107.0</ele>
      </trkpt>
      <trkpt lat="45.51463" lon="7.208943">
        <time>1970-01-01T00:00:00+00:00</time>
        <ele>2095.0</ele>
      </trkpt>
      <trkpt lat="45.514169" lon="7.208705">
        <time>1970-01-01T00:00:00+00:00</time>
        <ele>2089.0</ele>
      </trkpt>
      <trkpt lat="45.513995" lon="7.208791">
        <time>1970-01-01T00:00:00+00:00</time>
        <ele>2092.0</ele>
      </trkpt>
      <trkpt lat="45.514042" lon="7.208655">
        <time>1970-01-01T00:00:00+00:00</time>
        <ele>2086.0</ele>
      </trkpt>
      <trkpt lat="45.514553" lon="7.208491">
        <time>1970-01-01T00:00:00+00:00</time>
        <ele>2076.0</ele>
      </trkpt>
      <trkpt lat="45.514965" lon="7.208169">
        <time>1970-01-01T00:00:00+00:00</time>
        <ele>2055.0</ele>
      </trkpt>
      <trkpt lat="45.514264" lon="7.207794">
        <time>1970-01-01T00:00:00+00:00</time>
        <ele>2034.0</ele>
      </trkpt>
      <trkpt lat="45.514064" lon="7.207752">
        <time>1970-01-01T00:00:00+00:00</time>
        <ele>2033.0</ele>
      </trkpt>
      <trkpt lat="45.513976" lon="7.207799">
        <time>1970-01-01T00:00:00+00:00</time>
        <ele>2035.0</ele>
      </trkpt>
      <trkpt lat="45.514068" lon="7.207535">
        <time>1970-01-01T00:00:00+00:00</time>
        <ele>2026.0</ele>
      </trkpt>
      <trkpt lat="45.514311" lon="7.207316">
        <time>1970-01-01T00:00:00+00:00</time>
        <ele>2018.0</ele>
      </trkpt>
      <trkpt lat="45.514689" lon="7.207131">
        <time>1970-01-01T00:00:00+00:00</time>
        <ele>2012.0</ele>
      </trkpt>
      <trkpt lat="45.514816" lon="7.206775">
        <time>1970-01-01T00:00:00+00:00</time>
        <ele>2003.0</ele>
      </trkpt>
      <trkpt lat="45.51496" lon="7.206596">
        <time>1970-01-01T00:00:00+00:00</time>
        <ele>2001.0</ele>
      </trkpt>
      <trkpt lat="45.515168" lon="7.20597">
        <time>1970-01-01T00:00:00+00:00</time>
        <ele>1995.0</ele>
      </trkpt>
      <trkpt lat="45.515339" lon="7.205809">
        <time>1970-01-01T00:00:00+00:00</time>
        <ele>1993.0</ele>
      </trkpt>
      <trkpt lat="45.516246" lon="7.205613">
        <time>1970-01-01T00:00:00+00:00</time>
        <ele>1989.0</ele>
      </trkpt>
      <trkpt lat="45.517129" lon="7.205618">
        <time>1970-01-01T00:00:00+00:00</time>
        <ele>1983.0</ele>
      </trkpt>
      <trkpt lat="45.517509" lon="7.205507">
        <time>1970-01-01T00:00:00+00:00</time>
        <ele>1983.0</ele>
      </trkpt>
      <trkpt lat="45.517698" lon="7.20553">
        <time>1970-01-01T00:00:00+00:00</time>
        <ele>1986.0</ele>
      </trkpt>
      <trkpt lat="45.518474" lon="7.205146">
        <time>1970-01-01T00:00:00+00:00</time>
        <ele>1986.0</ele>
      </trkpt>
      <trkpt lat="45.519061" lon="7.205024">
        <time>1970-01-01T00:00:00+00:00</time>
        <ele>1984.0</ele>
      </trkpt>
      <trkpt lat="45.51921" lon="7.204765">
        <time>1970-01-01T00:00:00+00:00</time>
        <ele>1980.0</ele>
      </trkpt>
      <trkpt lat="45.519417" lon="7.204573">
        <time>1970-01-01T00:00:00+00:00</time>
        <ele>1977.0</ele>
      </trkpt>
      <trkpt lat="45.519652" lon="7.204542">
        <time>1970-01-01T00:00:00+00:00</time>
        <ele>1978.0</ele>
      </trkpt>
      <trkpt lat="45.520373" lon="7.203974">
        <time>1970-01-01T00:00:00+00:00</time>
        <ele>1972.0</ele>
      </trkpt>
      <trkpt lat="45.520661" lon="7.203846">
        <time>1970-01-01T00:00:00+00:00</time>
        <ele>1973.0</ele>
      </trkpt>
      <trkpt lat="45.520892" lon="7.203439">
        <time>1970-01-01T00:00:00+00:00</time>
        <ele>1969.0</ele>
      </trkpt>
      <trkpt lat="45.521277" lon="7.20324">
        <time>1970-01-01T00:00:00+00:00</time>
        <ele>1969.0</ele>
      </trkpt>
      <trkpt lat="45.521435" lon="7.203042">
        <time>1970-01-01T00:00:00+00:00</time>
        <ele>1967.0</ele>
      </trkpt>
      <trkpt lat="45.521823" lon="7.202871">
        <time>1970-01-01T00:00:00+00:00</time>
        <ele>1964.0</ele>
      </trkpt>
      <trkpt lat="45.522197" lon="7.202892">
        <time>1970-01-01T00:00:00+00:00</time>
        <ele>1962.0</ele>
      </trkpt>
      <trkpt lat="45.522665" lon="7.202771">
        <time>1970-01-01T00:00:00+00:00</time>
        <ele>1960.0</ele>
      </trkpt>
      <trkpt lat="45.523675" lon="7.202798">
        <time>1970-01-01T00:00:00+00:00</time>
        <ele>1956.0</ele>
      </trkpt>
      <trkpt lat="45.523966" lon="7.202669">
        <time>1970-01-01T00:00:00+00:00</time>
        <ele>1955.0</ele>
      </trkpt>
      <trkpt lat="45.524345" lon="7.202668">
        <time>1970-01-01T00:00:00+00:00</time>
        <ele>1955.0</ele>
      </trkpt>
      <trkpt lat="45.524477" lon="7.202502">
        <time>1970-01-01T00:00:00+00:00</time>
        <ele>1953.0</ele>
      </trkpt>
      <trkpt lat="45.524508" lon="7.201369">
        <time>1970-01-01T00:00:00+00:00</time>
        <ele>1954.0</ele>
      </trkpt>
    </trkseg>
  </trk>
</gpx>
